Regional Weather Roundup
Issued by NWS

Home | Current Version | Previous Version | Graphics & Text | Print | Product List | Glossary On
Versions: 1 2 3 4 5 6 7 8 9 10 11 12 13 14 15 16 17 18 19 20 21 22 23 24 25 26 27 28 29 30 31 32 33 34 35 36 37 38 39 40 41 42 43 44 45 46 47 48 49 50
799
ASUS45 KSLC 252210
RWRUT

UTAH REGIONAL WEATHER ROUNDUP
NATIONAL WEATHER SERVICE SALT LAKE CITY UT
400 PM MDT WED APR 25 2018

UTZ001>011-023>025-252300-

NORTHERN UTAH

CITY           SKY/WX    TMP DP  RH WIND       PRES   REMARKS
BRIGHAM CITY   SUNNY     68  18  14 SW10      30.16F
HILL AFB       SUNNY     67  22  18 SW7       30.16F
LOGAN          SUNNY     66  28  24 S6        30.14F
OGDEN          SUNNY     68  22  17 VRB7      30.15F
SALT LAKE CITY MOSUNNY   73  25  16 N9        30.13F
TOOELE VALLEY  SUNNY     68  32  26 N10       30.15F
WENDOVER       MOSUNNY   68  25  19 E9        30.15F
HEBER CITY       N/A     72  18  13 SW13      30.14F
WEST JORDAN    SUNNY     70  31  24 NW7       30.15F

$$

UTZ011>015-024>027-252300-

CENTRAL/NORTHEAST UTAH

CITY           SKY/WX    TMP DP  RH WIND       PRES   REMARKS
PROVO AIRPORT  SUNNY     70  24  17 CALM      30.15F
MOAB/CANYONLAN SUNNY     69   7   9 W5G17     30.13F
DELTA          SUNNY     70  18  13 CALM      30.16F
PRICE          SUNNY     66  12  12 VRB3      30.18F
RICHFIELD      SUNNY     75  23  14 N10G17    30.15F
ROOSEVELT      SUNNY     64  19  17 SE7       30.18F
VERNAL         SUNNY     62  18  18 CALM      30.17F

$$

UTZ013>016-019>022-027-252300-

SOUTHERN UTAH

CITY           SKY/WX    TMP DP  RH WIND       PRES   REMARKS
BRYCE CANYON   SUNNY     69  16  13 NW17G24   30.27F
CEDAR CITY     SUNNY     74  22  14 VRB3      30.16F
MILFORD        SUNNY     76  26  15 VRB5      30.13F
ST GEORGE      CLEAR     86  24  10 W7        30.02F
HANKSVILLE     SUNNY     72  14  11 NW6       30.16F
KANAB          SUNNY     79  18  10 SW1G12    30.16F
BLANDING         N/A     72   9   9 S10G17    30.23F

$$

REGIONAL REPORTS     COLORADO/ARIZONA

CITY           SKY/WX    TMP DP  RH WIND       PRES   REMARKS
CRAIG, CO      SUNNY     64  23  21 W5        30.17F
GRAND JUNCTION SUNNY     68   9  10 W8        30.13F
RIFLE, CO      SUNNY     68   8   9 NE3       30.13F
MONTROSE, CO   SUNNY     67   3   8 NW8       30.16F
CORTEZ, CO     SUNNY     71 -16   3 VRB3      30.16F
COLORADO CITY    N/A     81  23  12 NW12      30.16F
PAGE, AZ       SUNNY     75  16  10 N7        30.12F
GRAND CANYON   SUNNY     73  16  11 VRB3      30.23F
KINGMAN, AZ    SUNNY     90  23   9 VRB3G17   30.03F
FLAGSTAFF, AZ  MOSUNNY   70  22  16 VRB5      30.22F

$$

REGIONAL REPORTS    NEVADA/IDAHO/WYOMING

CITY           SKY/WX    TMP DP  RH WIND       PRES   REMARKS
LAS VEGAS, NV  MOSUNNY   90  23   9 E6        29.96F
ELY, NY        MOSUNNY   75  21  13 VRB6      30.18F
ELKO, NV       SUNNY     74  20  13 SW16G22   30.16F
POCATELLO, ID  SUNNY     69  23  17 W16G23    30.14F
BURLEY, ID     SUNNY     69  23  17 W9G29     30.12F
FORT BRIDGER,    N/A     67   7   9 W21G35    30.21F
EVANSTON, WY   SUNNY     63  14  15 W20G31    30.21F
ROCK SPRINGS,  SUNNY     63   4   9 W17G26    30.17F
KEMMERER, WY   MOSUNNY   61  14  16 W22G29    30.20F

$$




USA.gov is the U.S. government's official web portal to all federal, state and local government web resources and services.